ATLAS 5 CENTAUR DEB, 46869

Orbit data source: Space-Track

ATLAS 5 CENTAUR DEB, 46869 is space debris in HEO originally from a launch on Wed, 17 Oct 2018 UTC launched from the Air Force Eastern Test Range (AFETR). Debris objects in space refer to the collection of defunct objects orbiting the Earth. Examples of debris include non-operational satellites, rocket bodies, and fragments generated from explosions, collisions, or faulty payload assembly.

Loading next visibility...
Identifier
46869, 2018-079EA
Orbit
HEO
Last TLE update
3 days ago
Origin
Flag of USUnited Launch Alliance/Lockheed Martin (US)
Manufacturer
ULA Decatur
Mission
Spacecraft
Bus & Motor
Unknown
Mass
Unknown
Launch date (UTC)
2018-10-17 (7 years ago)
Launch vehicle
Unknown
Launch site
Air Force Eastern Test Range (AFETR)
Object type
Payload
Rocket body
Debris
Shape & HBR
Unknown
Radar Cross Section
RCS unknown

Expand to show TLE details & history

TLE from 3 days ago
0 ATLAS 5 CENTAUR DEB
1 46869U 18079EA  25180.10970435 -.00000138  00000-0  00000-0 0  9996
2 46869  12.9105  64.0931 4655577 259.8802  46.1924  1.83280040 31162
Epoch: 2025-06-29T02:37Z
TLE epoch observation values (Epoch: 2025-06-29T02:37:58.455Z)
Latitude
0.00004°
Longitude
107.16153°
Altitude
17,709.294 km
Speed
4.355 km/s
True Right ascension
04h 16m 22s
True Declination
0° 00' 00"
Sunlit
Object was in daylight at epoch
Visualization orbit readout
Latitude
0.92543°
Longitude
-77.14251°
Altitude
14,758.077 km
Speed
4.856 km/s
Apparent Right ascension
15h 26m 47s
Apparent Declination
-12° 21' 14"
Sunlit
Object is in daylight
Visualization observer readout
Local Sidereal Time
17:56:21
Azimuth
221.858° SW
Elevation
27.257°
Doppler factor
1
Orbital elements
Apogee altitude
34,960.898 km
Perigee altitude
8,696.895 km
Semi-major axis
28,207.034 km
Eccentricity
0.46556
Inclination
12.9105°
RAAN
64.0931°
Arg. of periapsis
259.8802°
True anomaly
Unknown
Mean anomaly
46.1924°
Eccentric anomaly
Unknown
Mean motion
0.45815 °/min
Orbital period
785.77 mins
BSTAR
0
Loading maneuver chart data...
Loading SW <> Apogee altitude chart data...

ATLAS 5 CENTAUR DEB Visibility forecast

Observer location: undefined°, undefined°

Span
Click to sort rows by Start time (UTC) header in descending order
Start Az.
Max El. time (UTC)
Max El. Az.
Max El.
End time (UTC)
End Az.
65 mins2025-07-02 06:14:39.184Z221.832° SW2025-07-02 06:16:39.184Z220.521° SW24.593°2025-07-02 07:19:39.184Z153.226° SSE
|